Time,TemperatureF,DewpointF,PressureIn,WindDirection,WindDirectionDegrees,WindSpeedMPH,WindSpeedGustMPH,Humidity,HourlyPrecipIn,Conditions,Clouds,dailyrainin,SoftwareType,DateUTC
2013-10-06 00:12:00,50.0,24.0,30.10,North,359,0.0,0.0,36,0.00,,,0.00,,2013-10-06 06:12:00,
2013-10-06 00:22:00,49.0,24.0,30.10,North,359,0.0,0.0,37,0.00,,,0.00,,2013-10-06 06:22:00,
2013-10-06 00:42:00,49.0,25.0,30.10,North,359,0.0,0.0,38,0.00,,,0.00,,2013-10-06 06:42:00,
2013-10-06 00:52:00,49.0,25.0,30.11,North,359,0.0,1.0,39,0.00,,,0.00,,2013-10-06 06:52:00,
2013-10-06 01:11:00,50.0,24.0,30.11,North,359,0.0,1.0,36,0.00,,,0.00,,2013-10-06 07:11:00,
2013-10-06 01:22:00,51.0,25.0,30.11,North,359,0.0,0.0,36,0.00,,,0.00,,2013-10-06 07:22:00,
2013-10-06 01:42:00,49.0,25.0,30.11,North,359,0.0,0.0,39,0.00,,,0.00,,2013-10-06 07:42:00,
2013-10-06 01:52:00,48.0,25.0,30.12,North,359,0.0,0.0,40,0.00,,,0.00,,2013-10-06 07:52:00,
2013-10-06 02:11:00,48.0,24.0,30.13,North,359,0.0,1.0,39,0.00,,,0.00,,2013-10-06 08:11:00,
2013-10-06 02:22:00,48.0,25.0,30.13,North,359,0.0,0.0,40,0.00,,,0.00,,2013-10-06 08:22:00,
2013-10-06 02:42:00,46.0,24.0,30.13,North,359,0.0,0.0,42,0.00,,,0.00,,2013-10-06 08:42:00,
2013-10-06 02:52:00,45.0,24.0,30.13,North,359,0.0,0.0,44,0.00,,,0.00,,2013-10-06 08:52:00,
2013-10-06 03:11:00,44.0,25.0,30.13,North,359,0.0,0.0,46,0.00,,,0.00,,2013-10-06 09:11:00,
2013-10-06 03:22:00,47.0,25.0,30.13,North,8,0.0,3.0,41,0.00,,,0.00,,2013-10-06 09:22:00,
2013-10-06 03:43:00,50.0,25.0,30.13,North,8,0.0,0.0,37,0.00,,,0.00,,2013-10-06 09:43:00,
2013-10-06 03:53:00,47.0,24.0,30.13,North,8,0.0,0.0,40,0.00,,,0.00,,2013-10-06 09:53:00,
2013-10-06 04:13:00,46.0,25.0,30.13,North,8,0.0,0.0,43,0.00,,,0.00,,2013-10-06 10:13:00,
2013-10-06 04:23:00,48.0,25.0,30.13,North,8,0.0,2.0,40,0.00,,,0.00,,2013-10-06 10:23:00,
2013-10-06 04:43:00,49.0,26.0,30.13,North,7,0.0,1.0,40,0.00,,,0.00,,2013-10-06 10:43:00,
2013-10-06 04:53:00,48.0,25.0,30.14,North,8,0.0,1.0,40,0.00,,,0.00,,2013-10-06 10:53:00,
2013-10-06 05:12:00,48.0,25.0,30.14,North,8,0.0,0.0,40,0.00,,,0.00,,2013-10-06 11:12:00,
2013-10-06 05:21:00,46.0,24.0,30.14,North,7,0.0,4.0,42,0.00,,,0.00,,2013-10-06 11:21:00,
2013-10-06 05:52:00,46.0,24.0,30.15,North,8,0.0,0.0,42,0.00,,,0.00,,2013-10-06 11:52:00,
2013-10-06 06:12:00,47.0,24.0,30.15,North,7,0.0,3.0,40,0.00,,,0.00,,2013-10-06 12:12:00,
2013-10-06 06:22:00,47.0,24.0,30.16,North,8,0.0,1.0,40,0.00,,,0.00,,2013-10-06 12:22:00,
2013-10-06 06:42:00,45.0,24.0,30.16,NNE,13,0.0,2.0,44,0.00,,,0.00,,2013-10-06 12:42:00,
2013-10-06 06:52:00,44.0,24.0,30.16,NNE,13,0.0,0.0,45,0.00,,,0.00,,2013-10-06 12:52:00,
2013-10-06 07:11:00,44.0,25.0,30.16,NNE,13,0.0,0.0,47,0.00,,,0.00,,2013-10-06 13:11:00,
2013-10-06 07:21:00,43.0,24.0,30.17,NNE,13,0.0,0.0,47,0.00,,,0.00,,2013-10-06 13:21:00,
2013-10-06 07:42:00,41.0,23.0,30.17,North,6,0.0,4.0,49,0.00,,,0.00,,2013-10-06 13:42:00,
2013-10-06 07:52:00,46.0,24.0,30.18,North,3,0.0,0.0,42,0.00,,,0.00,,2013-10-06 13:52:00,
2013-10-06 08:11:00,46.0,25.0,30.19,North,3,0.0,0.0,44,0.00,,,0.00,,2013-10-06 14:11:00,
2013-10-06 08:22:00,47.0,26.0,30.19,North,4,0.0,0.0,43,0.00,,,0.00,,2013-10-06 14:22:00,
2013-10-06 08:42:00,49.0,26.0,30.19,NE,53,0.0,5.0,40,0.00,,,0.00,,2013-10-06 14:42:00,
2013-10-06 08:52:00,51.0,26.0,30.20,North,1,0.0,4.0,37,0.00,,,0.00,,2013-10-06 14:52:00,
2013-10-06 09:11:00,53.0,27.0,30.20,North,354,0.0,6.0,36,0.00,,,0.00,,2013-10-06 15:11:00,
2013-10-06 09:22:00,54.0,27.0,30.21,NNW,333,0.0,3.0,35,0.00,,,0.00,,2013-10-06 15:22:00,
2013-10-06 09:43:00,56.0,27.0,30.22,NNW,338,0.0,1.0,33,0.00,,,0.00,,2013-10-06 15:43:00,
2013-10-06 09:53:00,57.0,27.0,30.22,NE,46,0.0,2.0,32,0.00,,,0.00,,2013-10-06 15:53:00,
2013-10-06 10:12:00,59.0,30.0,30.22,NE,46,0.0,1.0,33,0.00,,,0.00,,2013-10-06 16:12:00,
2013-10-06 10:23:00,61.0,29.0,30.22,NE,46,0.0,1.0,30,0.00,,,0.00,,2013-10-06 16:23:00,
2013-10-06 10:42:00,61.0,29.0,30.21,NE,47,0.0,1.0,30,0.00,,,0.00,,2013-10-06 16:42:00,
2013-10-06 10:53:00,64.0,29.0,30.21,NE,49,0.0,3.0,27,0.00,,,0.00,,2013-10-06 16:53:00,
2013-10-06 11:12:00,65.0,30.0,30.21,East,81,0.0,5.0,27,0.00,,,0.00,,2013-10-06 17:12:00,
2013-10-06 11:22:00,66.0,30.0,30.20,SW,217,1.0,-999.0,26,-99.99,,,-99.99,,2013-10-06 17:22:00,
2013-10-06 11:42:00,67.0,30.0,30.20,NW,305,0.0,7.0,25,0.00,,,0.00,,2013-10-06 17:42:00,
2013-10-06 11:52:00,68.0,29.0,30.19,North,11,0.0,3.0,23,0.00,,,0.00,,2013-10-06 17:52:00,
2013-10-06 12:12:00,69.0,30.0,30.19,ENE,69,0.0,3.0,23,0.00,,,0.00,,2013-10-06 18:12:00,
2013-10-06 12:22:00,70.0,29.0,30.19,East,96,0.0,5.0,22,0.00,,,0.00,,2013-10-06 18:22:00,
2013-10-06 12:42:00,70.0,29.0,30.18,NE,50,1.0,5.0,22,0.00,,,0.00,,2013-10-06 18:42:00,
2013-10-06 12:52:00,70.0,29.0,30.18,NW,317,0.0,2.0,22,0.00,,,0.00,,2013-10-06 18:52:00,
2013-10-06 13:11:00,71.0,29.0,30.16,South,183,0.0,5.0,21,0.00,,,0.00,,2013-10-06 19:11:00,
2013-10-06 13:22:00,72.0,30.0,30.15,SSE,158,1.0,5.0,21,0.00,,,0.00,,2013-10-06 19:22:00,
2013-10-06 13:42:00,72.0,30.0,30.15,SE,127,0.0,3.0,21,0.00,,,0.00,,2013-10-06 19:42:00,
2013-10-06 13:52:00,74.0,30.0,30.14,SE,134,0.0,2.0,20,0.00,,,0.00,,2013-10-06 19:52:00,
2013-10-06 14:11:00,73.0,30.0,30.13,ESE,122,0.0,3.0,20,0.00,,,0.00,,2013-10-06 20:11:00,
2013-10-06 14:22:00,74.0,33.0,30.12,West,271,0.0,6.0,22,0.00,,,0.00,,2013-10-06 20:22:00,
2013-10-06 14:52:00,75.0,31.0,30.11,WSW,249,0.0,6.0,20,0.00,,,0.00,,2013-10-06 20:52:00,
2013-10-06 15:11:00,75.0,31.0,30.10,WSW,252,0.0,6.0,20,0.00,,,0.00,,2013-10-06 21:11:00,
2013-10-06 15:44:00,77.0,32.0,30.09,SSW,207,2.0,6.0,19,0.00,,,0.00,,2013-10-06 21:44:00,
2013-10-06 15:54:00,76.0,32.0,30.09,SSW,211,1.0,4.0,20,0.00,,,0.00,,2013-10-06 21:54:00,
2013-10-06 16:13:00,75.0,30.0,30.08,SW,221,0.0,4.0,19,0.00,,,0.00,,2013-10-06 22:13:00,
2013-10-06 16:24:00,76.0,32.0,30.08,WSW,245,0.0,4.0,20,0.00,,,0.00,,2013-10-06 22:24:00,
2013-10-06 16:42:00,76.0,32.0,30.07,WSW,250,1.0,6.0,20,0.00,,,0.00,,2013-10-06 22:42:00,
2013-10-06 16:53:00,76.0,32.0,30.07,WSW,249,0.0,1.0,20,0.00,,,0.00,,2013-10-06 22:53:00,
2013-10-06 17:12:00,77.0,32.0,30.07,WSW,249,0.0,1.0,19,0.00,,,0.00,,2013-10-06 23:12:00,
2013-10-06 17:22:00,77.0,32.0,30.07,WSW,249,0.0,1.0,19,0.00,,,0.00,,2013-10-06 23:22:00,
2013-10-06 17:53:00,76.0,32.0,30.06,WSW,250,0.0,1.0,20,0.00,,,0.00,,2013-10-06 23:53:00,
2013-10-06 18:12:00,76.0,32.0,30.06,WSW,249,0.0,1.0,20,0.00,,,0.00,,2013-10-07 00:12:00,
2013-10-06 18:22:00,75.0,31.0,30.06,WSW,250,0.0,1.0,20,0.00,,,0.00,,2013-10-07 00:22:00,
2013-10-06 18:42:00,74.0,33.0,30.07,WSW,250,0.0,1.0,22,0.00,,,0.00,,2013-10-07 00:42:00,
2013-10-06 18:52:00,73.0,34.0,30.07,WSW,250,0.0,1.0,24,0.00,,,0.00,,2013-10-07 00:52:00,
2013-10-06 19:11:00,70.0,34.0,30.07,WSW,250,0.0,0.0,26,0.00,,,0.00,,2013-10-07 01:11:00,
2013-10-06 19:22:00,67.0,32.0,30.07,WSW,249,0.0,0.0,27,0.00,,,0.00,,2013-10-07 01:22:00,
2013-10-06 19:42:00,64.0,30.0,30.08,WSW,250,0.0,0.0,28,0.00,,,0.00,,2013-10-07 01:42:00,
2013-10-06 19:53:00,64.0,31.0,30.08,WSW,249,0.0,0.0,29,0.00,,,0.00,,2013-10-07 01:53:00,
2013-10-06 20:12:00,64.0,31.0,30.09,WSW,250,0.0,0.0,29,0.00,,,0.00,,2013-10-07 02:12:00,
2013-10-06 20:22:00,63.0,33.0,30.09,WSW,250,0.0,0.0,33,0.00,,,0.00,,2013-10-07 02:22:00,
2013-10-06 20:42:00,61.0,32.0,30.09,WSW,250,0.0,0.0,34,0.00,,,0.00,,2013-10-07 02:42:00,
2013-10-06 20:53:00,60.0,32.0,30.10,WSW,249,0.0,0.0,35,0.00,,,0.00,,2013-10-07 02:53:00,
2013-10-06 21:12:00,59.0,33.0,30.10,WSW,249,0.0,0.0,37,0.00,,,0.00,,2013-10-07 03:12:00,
2013-10-06 21:22:00,58.0,33.0,30.11,WSW,249,0.0,0.0,38,0.00,,,0.00,,2013-10-07 03:22:00,
2013-10-06 21:44:00,57.0,32.0,30.11,WSW,249,0.0,0.0,38,0.00,,,0.00,,2013-10-07 03:44:00,
2013-10-06 21:54:00,57.0,32.0,30.11,WSW,250,0.0,0.0,39,0.00,,,0.00,,2013-10-07 03:54:00,
2013-10-06 22:13:00,56.0,32.0,30.11,WSW,250,0.0,0.0,40,0.00,,,0.00,,2013-10-07 04:13:00,
2013-10-06 22:24:00,55.0,31.0,30.12,WSW,250,0.0,0.0,40,0.00,,,0.00,,2013-10-07 04:24:00,
2013-10-06 22:44:00,54.0,31.0,30.12,WSW,249,0.0,0.0,42,0.00,,,0.00,,2013-10-07 04:44:00,
2013-10-06 22:53:00,53.0,34.0,30.12,WSW,249,0.0,0.0,48,0.00,,,0.00,,2013-10-07 04:53:00,
2013-10-06 23:13:00,52.0,33.0,30.12,WSW,250,0.0,0.0,49,0.00,,,0.00,,2013-10-07 05:13:00,
2013-10-06 23:22:00,52.0,32.0,30.13,WSW,249,0.0,0.0,46,0.00,,,0.00,,2013-10-07 05:22:00,
2013-10-06 23:43:00,51.0,31.0,30.13,WSW,250,0.0,0.0,46,0.00,,,0.00,,2013-10-07 05:43:00,
2013-10-06 23:52:00,50.0,32.0,30.13,WSW,250,0.0,0.0,50,0.00,,,0.00,,2013-10-07 05:52:00,